Terug naar catalogus

STARLINK-32696

ActiefCommunicatieVLEO
NORAD 62310·PAYLOAD·🇺🇸 United States

Gelanceerd Dec 13, 2024 vanaf Vandenberg Space Force Base

Loading…

Volgende Passages (komende 24 uur)

TLE

VersSource: CelesTrak SupGP

Epoch: Sep 15, 2026, 02:13 UTC

1 62310C 24239K   26258.09284722 -.00001811  00000+0 -53493-4 0  2587
2 62310  53.1601  30.6400 0001136  80.2274 223.6612 15.34395054    19

Volg STARLINK-32696 in realtime met AllMySat

Download on the App Store